Dewpoint
57 57 56 55 54 53 53 53 53 53 53 53 52 52 52 52 51 51 50 49 49 48 48 48 48 48 48 49 48 48 49 49 50 49 48 47 46 45 45 45 45 46 48 46 44 43 43 41 41 41 42 41 41 40 41 41 42 42 43 43 43 44 45 46 46 45 45 46 45 44 44 44 43 44 44 44 45 45 45 44 45 45 45 45 46
56 55 54 54 53 53 53 53 52 52 52 52 51 51 51 51 51 50 49 49 48 48 47 48 47 47 47 47 47 47 47 47 48 48 45 44 44 44 44 43 43 43 43 42 42 43 41 40 40 41 41 40 40 40 40 41 41 42 43 43 43 44 46 46 47 46 43 43 43 44 43 44 43 44 44 44 44 44 43 43 43 44 44 44 44
55 54 53 52 52 52 52 52 52 51 51 51 51 51 51 50 50 49 48 48 48 47 47 47 47 46 46 45 45 45 45 46 46 45 43 42 42 42 43 42 42 42 42 41 41 41 40 41 40 40 41 39 39 40 40 40 42 42 43 44 44 45 46 47 47 42 41 40 41 41 41 42 43 43 44 44 45 44 43 43 43 44 44 44 44
54 53 52 52 52 51 51 51 51 51 51 51 50 50 50 49 49 48 47 47 46 47 46 45 45 44 44 43 44 44 45 45 45 44 42 41 40 40 40 40 41 41 41 41 40 40 40 39 40 39 40 38 39 39 40 40 41 42 43 44 45 46 46 46 44 42 41 40 40 40 41 41 42 42 44 45 43 43 43 43 43 43 43 43 42
52 52 51 51 51 51 51 51 50 50 50 50 50 50 49 48 48 47 47 46 46 45 46 45 44 43 43 43 43 43 44 45 44 43 41 41 40 40 39 39 39 40 40 41 44 40 40 39 40 39 38 38 38 38 39 40 41 41 42 44 44 44 44 43 42 41 40 39 40 40 41 41 41 41 42 41 41 41 42 42 42 42 42 42 42
51 51 51 50 50 50 50 50 50 50 50 50 50 49 49 48 47 47 46 45 45 45 44 44 44 42 42 42 42 43 44 44 44 42 41 40 40 40 39 39 39 39 39 39 40 40 40 40 40 40 38 38 38 38 39 40 40 40 41 42 43 43 42 41 41 41 40 40 39 39 40 40 39 39 39 40 40 40 40 40 40 41 41 40 41
51 50 50 50 50 50 50 50 50 50 50 50 49 49 48 47 47 46 46 44 44 43 43 42 43 42 42 42 43 43 44 44 43 42 41 40 39 39 39 38 39 39 38 39 39 38 38 40 40 40 40 39 38 39 39 40 40 40 41 41 42 41 40 40 40 40 40 39 39 39 39 39 39 38 39 40 40 39 39 39 39 40 40 40 40
51 50 50 50 49 49 49 50 50 50 50 49 49 48 47 47 46 46 45 44 43 43 42 42 42 42 42 43 43 44 43 43 42 42 41 41 40 39 39 38 38 37 37 37 38 37 37 38 40 40 42 41 40 39 40 40 40 39 40 41 41 40 39 39 38 38 38 39 38 38 38 38 38 38 39 39 38 39 39 39 38 39 39 40 40
50 50 50 49 49 49 49 50 50 49 49 48 48 47 47 46 46 45 45 45 45 44 44 43 43 41 41 42 42 43 42 42 41 41 40 39 39 38 38 38 37 36 36 36 36 36 36 37 40 41 44 45 44 42 43 42 41 39 40 40 42 40 39 38 38 38 38 38 37 38 37 37 38 38 38 38 38 39 39 39 39 39 39 40 40
50 50 49 50 50 49 49 49 49 48 48 47 47 47 46 46 46 45 44 44 43 42 41 41 40 41 41 41 42 42 42 43 45 43 43 40 39 38 38 37 37 36 36 35 35 36 35 36 41 42 43 44 43 39 39 39 41 42 41 41 40 40 39 38 38 38 38 37 36 36 36 36 37 37 38 38 39 39 38 38 38 38 39 39 39
50 49 50 50 50 49 49 49 48 47 47 47 46 46 46 46 44 43 42 42 41 41 39 39 40 40 41 41 41 42 42 43 41 39 40 41 39 37 36 36 36 36 35 34 35 36 35 34 35 38 40 42 42 38 38 38 38 39 40 42 43 41 38 38 38 38 38 38 37 37 36 36 37 37 38 38 39 38 38 38 38 38 38 38 37
49 49 49 49 50 50 50 49 48 48 48 48 47 46 47 45 43 42 42 41 41 40 39 39 39 39 40 41 41 41 41 43 39 39 39 39 41 40 37 36 37 35 35 34 35 35 35 34 35 37 36 41 41 35 38 39 38 39 39 39 39 40 40 39 39 38 38 38 37 37 37 37 37 37 38 38 39 38 38 38 38 38 38 37 37
49 49 49 49 49 50 49 48 48 47 47 47 46 45 43 42 41 40 41 41 40 39 38 38 38 39 40 40 40 40 39 41 39 40 39 39 39 40 37 37 37 35 35 35 35 35 35 36 35 35 34 40 40 35 35 36 39 39 39 39 39 40 37 37 39 41 40 39 38 37 38 38 37 37 38 39 39 38 37 37 37 37 37 37 36
49 49 49 49 48 49 48 47 46 46 47 46 45 44 43 42 41 42 42 40 39 38 38 37 37 38 39 39 39 38 38 41 40 40 39 39 39 40 38 38 37 37 37 36 35 35 36 36 34 33 33 35 36 35 35 35 35 35 34 34 34 37 38 38 39 39 40 39 38 37 38 39 39 39 39 39 39 38 38 37 37 36 35 35 35
49 48 48 48 48 48 48 46 45 45 45 46 44 43 41 40 40 39 38 38 37 36 36 36 37 38 38 38 39 38 38 39 39 39 39 39 39 40 38 38 38 36 36 35 35 35 36 37 34 33 33 33 37 37 36 35 34 34 33 33 33 34 34 35 37 39 39 38 37 38 38 39 39 39 39 39 39 39 39 38 37 36 35 35 34
48 48 47 48 48 48 47 46 45 45 45 44 42 40 39 38 37 38 38 37 37 36 35 36 35 36 37 38 38 36 37 39 39 39 39 39 40 41 38 38 36 35 34 34 34 34 37 37 34 33 33 33 37 36 37 36 32 32 32 31 32 33 33 37 37 38 39 37 37 38 38 39 39 39 39 39 39 40 39 37 37 36 35 33 33
47 47 47 47 47 47 47 45 45 44 43 42 40 39 38 38 38 37 35 34 34 34 34 35 36 36 37 36 35 35 35 37 38 38 38 38 38 37 36 35 34 34 33 33 33 34 37 38 34 32 33 33 36 34 36 37 32 31 31 30 31 31 31 33 36 36 37 37 37 37 37 38 38 38 38 38 39 40 38 37 36 36 35 33 33
48 48 48 47 47 47 46 45 44 43 42 40 39 39 38 37 36 37 34 34 34 34 34 34 35 36 34 34 35 34 34 37 37 37 37 37 38 35 34 34 33 34 33 33 33 33 36 41 41 33 33 33 35 34 35 36 31 32 31 30 29 29 30 32 33 34 36 37 37 37 37 38 38 38 39 39 39 40 39 36 37 38 35 35 33
48 48 47 47 46 46 45 44 44 42 41 40 39 38 37 37 38 37 36 35 36 35 36 34 34 35 35 37 39 34 34 36 36 36 36 37 38 34 35 34 32 32 33 32 32 32 32 36 40 37 35 35 34 34 35 36 31 31 31 30 29 28 29 31 32 32 32 34 34 37 37 38 39 39 40 39 39 41 39 39 39 38 36 35 35
47 47 47 46 45 45 45 44 43 42 41 40 39 38 39 37 36 35 36 35 35 35 34 33 32 33 33 33 34 34 34 34 35 36 36 37 37 36 34 32 33 31 31 34 31 30 32 32 37 35 34 34 34 34 34 35 32 31 31 30 30 28 31 31 34 34 31 33 34 35 36 37 37 37 38 38 39 40 39 40 40 39 37 36 36
46 46 45 44 44 44 43 43 42 42 41 40 40 39 37 35 35 35 35 35 34 34 34 34 34 34 34 34 35 34 35 34 35 36 36 36 36 35 32 32 31 30 29 30 28 29 31 31 32 36 34 34 34 34 34 34 35 34 32 31 30 33 34 31 32 36 31 33 34 35 36 36 37 37 37 38 38 39 39 39 40 40 39 38 36
45 44 44 43 43 43 43 42 42 41 41 40 39 37 36 34 34 35 35 35 34 34 34 34 33 32 32 33 33 34 37 38 34 36 36 36 36 36 34 33 34 31 31 29 29 29 29 30 32 36 34 34 34 34 34 33 33 34 31 33 33 33 33 34 31 30 30 31 32 34 35 35 36 36 37 37 38 39 38 38 39 40 40 40 39
44 43 43 43 43 42 42 42 41 41 40 39 37 36 34 34 35 35 35 35 34 34 33 33 32 31 31 30 30 31 31 35 36 35 36 35 35 35 35 34 35 36 30 29 28 28 29 30 34 37 34 34 34 34 34 33 33 31 32 32 33 33 34 30 31 29 29 30 31 32 33 34 35 36 37 37 37 37 37 38 38 39 39 40 40
43 43 42 42 42 42 42 42 41 40 39 37 36 34 33 34 35 35 35 35 34 33 32 33 32 30 29 28 30 29 29 31 36 36 34 35 35 35 34 34 34 34 33 29 30 29 31 30 34 34 34 34 34 34 33 33 32 32 32 32 32 33 31 30 28 29 29 29 30 30 31 33 34 35 36 36 37 37 37 37 37 38 38 38 38
42 42 42 41 41 42 42 41 40 38 37 36 34 33 34 35 35 36 36 35 34 34 33 33 30 29 28 28 26 27 28 28 29 34 36 35 34 34 34 34 33 33 30 31 33 33 34 35 34 34 34 34 33 33 33 33 33 32 32 32 34 29 30 29 29 28 27 28 29 30 30 31 33 34 35 36 36 37 37 37 37 37 37 37 37
42 41 41 41 41 41 41 40 39 38 36 34 34 35 36 37 37 37 36 36 35 35 33 31 30 28 27 26 26 26 27 26 26 27 35 36 34 34 33 33 35 34 34 31 34 34 35 34 33 33 34 33 33 30 30 31 32 32 32 33 27 28 29 28 27 27 27 28 29 28 29 30 32 33 34 35 36 36 35 36 36 35 36 36 35
41 41 41 40 40 40 40 39 39 38 37 37 37 38 38 38 38 38 37 36 35 34 34 32 30 29 26 26 26 27 25 25 25 25 25 27 27 30 30 30 33 33 33 32 33 34 35 35 31 32 33 33 32 32 31 32 29 28 28 28 28 28 29 28 26 27 28 28 28 27 28 29 31 33 33 34 35 35 35 35 35 35 35 35 34
40 40 40 40 40 40 39 37 38 38 37 37 37 37 37 38 38 37 37 36 35 33 32 31 30 29 26 26 26 26 24 24 25 24 24 28 27 25 27 29 26 26 28 29 30 33 31 33 31 29 29 28 28 27 26 27 26 27 27 27 27 29 30 32 30 26 26 26 27 27 28 28 29 30 32 32 33 34 34 34 34 34 34 34 33
40 39 39 39 38 39 38 38 37 35 34 33 32 32 36 37 37 36 36 37 35 34 32 30 30 27 26 26 25 25 24 25 26 30 29 32 28 26 26 26 27 27 33 34 35 30 27 27 27 26 25 25 25 25 25 26 25 26 26 27 26 27 26 26 25 25 27 27 26 27 27 27 28 29 31 31 31 32 33 33 33 33 33 33 32
39 38 38 37 37 37 36 35 35 34 33 32 31 31 32 35 33 36 34 36 35 34 33 30 29 27 26 26 25 25 24 25 31 32 33 33 33 33 33 33 33 31 34 34 31 25 25 24 24 23 24 24 22 22 23 23 24 24 24 27 26 26 27 26 25 25 27 26 26 27 26 27 26 27 28 29 30 31 32 33 32 32 32 31 31
38 37 37 36 36 35 34 34 33 32 32 31 31 30 29 30 33 34 34 35 34 33 32 32 32 30 28 24 27 32 30 30 31 33 33 34 33 33 33 33 34 33 33 27 25 21 19 20 21 23 23 24 21 22 22 21 20 22 23 24 24 25 26 25 26 25 25 26 26 25 26 26 26 27 27 27 28 29 30 31 31 31 30 30 31
37 36 36 35 34 34 33 33 32 31 30 30 29 29 28 28 28 31 33 33 34 33 33 33 32 31 31 29 29 27 30 33 33 33 34 33 33 33 33 34 34 34 32 31 24 20 21 20 21 20 23 22 20 22 22 22 21 21 22 21 22 23 23 22 24 24 24 25 25 24 24 25 26 25 26 26 26 28 29 30 30 30 30 30 30
36 35 34 34 33 33 32 31 31 31 30 28 28 27 27 26 25 25 28 32 33 33 34 33 33 32 32 32 32 29 29 31 33 34 33 33 33 33 33 34 34 33 31 24 21 21 22 24 23 23 22 21 23 23 23 23 22 22 21 21 21 22 23 23 23 24 23 24 22 23 22 24 24 25 24 24 25 25 26 28 28 28 28 30 30
35 34 34 33 32 31 31 31 30 30 29 28 27 26 26 26 25 25 24 24 26 28 30 33 33 32 33 34 32 31 32 33 34 33 33 32 32 33 32 30 33 32 29 23 23 21 24 24 25 24 24 24 24 23 22 23 22 22 22 22 22 23 23 24 23 23 23 24 24 22 23 22 22 23 24 24 25 24 24 24 26 28 29 27 28
35 33 32 32 31 31 30 30 29 28 28 28 27 26 26 26 25 25 24 23 23 22 22 23 28 33 29 31 31 32 33 33 33 33 31 31 31 32 32 27 22 24 25 26 25 24 25 25 24 25 24 24 24 23 23 24 23 23 21 21 21 22 22 22 22 23 23 23 25 23 23 22 22 22 21 21 22 22 22 23 24 24 25 27 27
34 32 32 31 30 29 29 29 28 28 27 26 26 26 26 25 24 24 24 23 22 21 20 21 23 29 31 32 33 33 33 33 33 33 31 31 31 30 24 22 22 23 24 24 25 25 25 25 25 25 25 25 25 25 24 24 24 23 23 22 20 21 21 21 21 20 21 20 22 22 25 23 22 22 21 20 21 20 21 21 22 21 22 23 23
32 31 30 30 29 28 28 27 27 27 26 26 24 24 24 23 23 22 21 21 21 20 18 18 21 21 26 28 34 35 33 33 33 33 33 32 32 28 26 25 23 24 25 25 25 26 25 26 26 25 26 25 25 25 25 25 25 25 27 25 23 22 21 21 21 21 19 19 20 21 21 19 21 19 19 19 20 20 21 21 21 22 21 22 23
32 30 29 28 28 27 27 26 26 26 26 24 23 23 22 21 21 21 20 20 21 20 17 18 24 19 17 18 38 27 26 31 30 30 31 31 26 25 26 26 26 26 26 25 26 27 25 25 26 26 26 26 25 25 25 25 24 24 25 24 21 22 27 25 21 20 18 17 18 19 20 21 19 18 20 17 17 18 20 19 18 20 20 22 20
31 30 29 29 27 26 26 26 26 25 25 24 23 23 23 22 22 21 20 21 21 20 20 20 22 22 20 22 24 31 28 25 24 25 26 26 26 26 26 26 27 27 27 26 26 26 26 25 26 27 26 26 26 25 25 26 25 24 24 22 22 21 19 18 19 19 18 18 18 18 18 20 20 19 18 18 18 18 18 18 18 18 16 18 18
29 28 28 28 27 27 27 26 26 25 25 23 23 23 23 23 22 22 21 21 22 22 22 23 23 23 24 26 26 27 26 27 26 27 26 27 26 27 27 27 28 28 28 27 26 26 27 26 26 26 26 26 26 26 26 26 26 25 23 21 21 22 22 21 19 19 20 20 18 19 19 20 20 20 18 18 18 18 18 18 19 18 17 17 18
28 28 28 27 27 26 26 26 25 24 24 24 23 23 22 23 23 24 23 23 24 24 25 24 23 24 26 28 30 30 28 28 28 27 27 28 27 26 27 28 28 27 27 27 27 26 26 26 26 26 26 26 26 27 26 26 25 23 24 23 21 23 23 23 21 21 21 20 20 20 20 20 19 19 20 21 26 24 19 19 19 18 19 18 18
28 27 26 26 27 26 26 25 25 25 24 25 23 22 24 25 25 25 26 25 26 26 25 26 26 26 29 31 31 32 29 28 27 27 27 27 27 26 27 27 28 27 27 26 26 27 26 26 26 26 27 26 25 26 24 25 25 25 24 23 23 24 24 25 24 23 22 22 22 22 21 21 21 21 22 28 22 19 18 18 19 19 19 18 18
29 28 26 27 26 26 25 25 25 25 24 24 23 24 25 25 26 27 27 28 28 28 27 27 27 28 28 29 31 31 30 29 29 28 28 26 24 25 25 25 26 27 27 27 27 27 27 27 27 27 27 28 27 27 27 27 27 26 25 24 25 25 26 26 24 24 23 22 23 23 23 22 22 22 22 21 21 19 19 19 20 20 19 18 18
29 28 28 27 27 27 27 26 26 26 26 26 25 26 26 26 26 27 27 28 28 28 29 28 28 28 29 29 29 30 30 30 30 30 29 28 27 27 26 25 27 28 28 28 27 27 28 28 28 28 28 27 27 27 27 28 28 27 26 26 26 26 26 26 26 27 26 24 25 25 25 24 24 23 24 24 21 21 23 22 21 22 21 21 19
29 28 28 27 28 27 27 28 27 27 28 28 26 26 28 26 27 27 28 28 29 29 28 29 28 28 28 26 28 30 30 30 30 29 29 28 27 27 28 28 28 27 28 28 28 28 28 29 29 28 29 29 28 27 27 27 28 28 28 28 27 28 28 28 28 28 25 24 25 26 26 25 25 25 25 25 23 22 23 24 23 24 23 23 21
29 29 28 27 28 28 28 28 29 28 28 28 27 27 28 28 28 28 28 28 29 29 28 28 28 28 28 27 26 27 28 26 27 27 28 28 28 28 29 29 30 29 29 29 28 28 29 29 29 29 29 29 29 28 27 28 28 28 28 28 29 29 29 29 29 26 26 26 27 27 28 26 26 26 26 26 25 24 24 24 23 23 23 24 24
34 32 29 28 27 28 29 29 29 29 28 28 28 28 28 28 28 28 29 29 28 29 28 27 27 27 28 27 27 26 26 27 27 27 27 27 28 28 29 29 29 29 30 28 27 28 29 29 30 30 30 30 29 29 28 28 27 27 27 27 27 28 29 29 29 29 29 29 28 27 28 28 28 27 28 27 26 26 26 26 26 26 26 25 25
32 31 30 30 29 29 30 29 29 29 28 28 28 28 28 29 29 29 29 29 29 29 28 28 27 27 27 28 28 28 28 27 27 28 28 28 29 29 29 29 30 30 29 29 28 28 29 29 29 28 28 28 27 28 28 28 28 28 28 28 28 28 28 26 28 29 28 29 28 28 28 29 29 28 28 28 27 27 26 27 27 26 26 26 26
30 30 30 29 30 30 30 29 28 28 28 28 29 28 29 29 29 29 29 29 29 29 28 28 28 28 28 28 28 28 28 28 28 28 29 29 29 29 30 30 29 29 28 29 29 27 27 27 27 27 27 27 27 27 28 28 29 29 29 28 27 26 26 26 26 28 27 29 28 28 28 28 28 29 29 28 28 28 28 27 27 27 27 27 27
30 30 30 29 30 30 30 29 29 28 29 29 28 28 29 29 29 29 29 28 28 28 28 28 28 28 28 28 28 28 27 27 28 28 28 28 28 29 29 28 28 28 27 27 29 27 27 27 28 28 29 28 28 28 28 28 28 27 27 27 25 25 25 26 26 26 27 27 28 28 28 29 28 29 29 29 29 28 28 28 28 28 28 28 28
29 30 30 29 29 30 30 29 29 28 29 29 29 29 29 29 28 29 29 29 28 28 29 28 28 28 28 28 28 28 28 28 28 28 29 29 29 29 28 27 27 28 27 27 28 30 29 29 28 28 28 28 28 27 27 27 27 26 25 24 24 24 25 25 26 25 25 25 26 28 28 28 28 29 29 29 29 29 29 29 29 29 29 29 29